CW8332 Weather Reports


time (UTC)temp
F
wind
direction
speed
knots
gust
knots
rain 1hr
in
rain 24hr
in
rain mn
in
humidity
%
barometer
mb
20260510141726 55 290 1.7 4.3 0.00 0.31 0.01 52 1016.1
20260510140228 54 282 1.7 3.5 0.00 0.31 0.01 60 1016.2
20260510134729 54 313 1.7 4.3 0.00 0.31 0.01 60 1016.1
20260510133224 53 282 2.6 6.1 0.00 0.31 0.01 61 1016.0
20260510131715 52 17 2.6 6.1 0.00 0.31 0.01 64 1015.4
20260510130238 52 5 0.9 7.0 0.00 0.31 0.01 63 1015.2
20260510124721 52 355 1.7 5.2 0.00 0.31 0.01 67 1014.9
20260510123212 51 346 2.6 4.3 0.00 0.31 0.01 65 1014.7
20260510121722 50 342 0.9 2.6 0.00 0.31 0.01 70 1014.5
20260510120223 50 71 0.9 7.0 0.00 0.31 0.01 70 1014.3
20260510114726 50 313 0.9 5.2 0.00 0.31 0.01 73 1013.8
20260510113217 50 47 0.9 5.2 0.00 0.31 0.01 75 1013.5
20260510111751 49 304 0.9 2.6 0.00 0.31 0.01 78 1013.3
20260510110230 49 46 0.9 2.6 0.00 0.31 0.01 79 1013.0
20260510104713 49 84 0.0 3.5 0.00 0.31 0.01 80 1012.5
20260510103225 49 83 0.0 1.7 0.00 0.31 0.01 80 1012.2
20260510101714 49 83 0.0 0.9 0.00 0.31 0.01 81 1011.9
20260510100237 49 83 0.0 0.9 0.00 0.31 0.01 82 1011.8
20260510094722 50 83 0.0 0.9 0.00 0.31 0.01 83 1011.6
20260510093212 50 83 0.0 1.7 0.00 0.31 0.01 83 1011.4
20260510091726 50 83 0.0 0.9 0.00 0.31 0.01 84 1011.1
20260510090231 50 83 0.0 0.9 0.00 0.31 0.01 84 1010.9
20260510084711 50 83 0.0 0.9 0.00 0.31 0.01 85 1010.5
20260510083224 50 83 0.0 0.0 0.00 0.31 0.01 86 1010.4
20260510081736 50 83 0.0 0.0 0.00 0.31 0.01 85 1010.4
20260510080242 50 83 0.0 0.0 0.00 0.31 0.01 84 1009.8
20260510074724 51 83 0.0 0.0 0.00 0.31 0.01 84 1009.6
20260510073214 51 83 0.0 0.0 0.00 0.31 0.01 83 1009.3
20260510071725 52 83 0.0 0.0 0.00 0.31 0.01 82 1009.1
20260510070231 52 83 0.0 0.0 0.00 0.31 0.01 82 1009.0
20260510064733 53 83 0.0 0.9 0.00 0.32 0.01 81 1008.9
20260510063224 53 83 0.0 0.9 0.00 0.32 0.01 81 1008.8
20260510061722 52 83 0.0 2.6 0.01 0.32 0.01 81 1008.7
20260510060223 52 71 1.7 4.3 0.01 0.32 0.01 83 1008.7
20260510054745 52 46 0.0 1.7 0.01 0.32 0.01 82 1008.6
20260510053215 54 360 3.5 7.0 0.01 0.32 0.01 80 1008.1
20260510051729 57 81 3.5 8.7 0.00 0.31 0.00 78 1007.5
20260510050233 59 277 3.5 7.0 0.00 0.31 0.00 79 1008.2
20260510044713 60 282 1.7 6.1 0.00 0.31 0.00 80 1007.1
20260510043248 58 301 1.7 4.3 0.00 0.31 0.00 80 1006.7
20260510041722 59 306 0.0 0.0 0.00 0.31 0.00 80 1005.9
20260510040224 59 306 0.0 0.9 0.00 0.31 0.00 81 1005.7
20260510034725 59 307 0.0 2.6 0.00 0.31 0.31 81 1005.7
20260510033216 59 270 0.9 3.5 0.00 0.31 0.31 84 1005.8
20260510031732 57 293 0.9 2.6 0.00 0.31 0.31 86 1005.8
20260510030235 57 325 0.0 0.9 0.00 0.31 0.31 86 1005.6
20260510024715 57 325 0.0 3.5 0.00 0.31 0.31 87 1005.8
20260510023212 57 154 0.0 0.9 0.00 0.31 0.31 88 1006.0
20260510021723 57 155 0.0 2.6 0.00 0.31 0.31 88 1005.6
20260510020246 57 219 0.0 0.9 0.00 0.31 0.31 88 1005.5
20260510014727 57 282 0.0 0.9 0.00 0.31 0.31 88 1005.5
20260510013238 57 284 0.0 0.0 0.00 0.31 0.31 88 1005.4
20260510011712 57 284 0.0 0.9 0.00 0.31 0.31 88 1005.2
20260510010235 57 284 0.0 1.7 0.00 0.31 0.31 88 1005.0
20260510004713 57 285 0.0 0.0 0.00 0.31 0.31 88 1005.0
20260510003229 58 285 0.0 0.9 0.00 0.31 0.31 87 1005.1
20260510001718 58 286 0.0 0.9 0.00 0.31 0.31 88 1005.1
20260510000242 58 285 0.0 2.6 0.29 0.31 0.31 87 1005.0
20260509234722 58 285 0.0 0.9 0.29 0.31 0.31 87 1004.9
20260509233218 58 286 0.0 3.5 0.29 0.31 0.31 86 1004.9
20260509231753 58 248 0.0 1.7 0.29 0.31 0.31 85 1004.9
20260509230234 58 277 0.9 4.3 0.00 0.02 0.02 82 1005.0
20260509224715 61 279 3.5 13.0 0.00 0.02 0.02 70 1005.6
20260509223231 70 284 7.8 14.8 0.00 0.02 0.02 53 1004.5
20260509221745 71 238 0.9 7.8 0.00 0.02 0.02 53 1002.3
20260509220223 71 277 3.5 6.1 0.00 0.02 0.02 51 1002.1
20260509214724 71 173 1.7 10.4 0.00 0.02 0.02 52 1002.1
20260509213220 72 153 2.6 7.8 0.00 0.02 0.02 51 1001.8
20260509211731 73 189 2.6 7.0 0.00 0.02 0.02 51 1001.7
20260509210231 72 191 1.7 7.0 0.00 0.02 0.02 55 1002.2
20260509204714 72 180 3.5 7.8 0.00 0.02 0.02 54 1002.2
20260509203226 72 178 1.7 10.4 0.00 0.02 0.02 53 1002.5
20260509201716 71 182 3.5 11.3 0.00 0.02 0.02 52 1003.0
20260509200240 71 171 1.7 7.8 0.00 0.02 0.02 53 1003.2
20260509194724 71 208 2.6 7.8 0.00 0.02 0.02 56 1003.3
20260509193214 71 166 2.6 7.0 0.00 0.02 0.02 55 1003.4
20260509191729 70 222 1.7 7.8 0.00 0.02 0.02 55 1003.8
20260509190232 70 170 1.7 5.2 0.00 0.02 0.02 59 1004.1
20260509184712 69 142 2.6 5.2 0.01 0.03 0.02 58 1004.2
20260509183224 69 211 0.9 6.1 0.01 0.03 0.02 59 1004.3
20260509181714 69 153 1.7 5.2 0.01 0.03 0.02 56 1004.3
20260509180242 69 208 2.6 7.0 0.01 0.03 0.02 59 1004.0
20260509174722 68 175 1.7 7.0 0.00 0.02 0.01 59 1004.4
20260509173212 68 263 0.9 7.0 0.00 0.02 0.01 62 1004.5
20260509171726 68 255 2.6 7.0 0.00 0.02 0.01 61 1004.3
20260509170255 67 173 1.7 6.1 0.00 0.02 0.01 63 1004.4
20260509164713 66 283 3.5 7.0 0.00 0.02 0.01 65 1004.7
20260509163246 66 175 1.7 8.7 0.00 0.02 0.01 65 1004.6
20260509161718 66 157 1.7 7.0 0.00 0.02 0.01 66 1004.8
20260509160245 66 165 2.6 7.0 0.00 0.02 0.01 66 1005.2
20260509154725 65 300 1.7 7.8 0.00 0.02 0.01 71 1005.5
20260509153217 62 267 0.9 4.3 0.00 0.02 0.01 74 1005.4
20260509151714 61 290 3.5 8.7 0.00 0.02 0.01 74 1005.4
20260509150235 61 301 0.9 6.1 0.00 0.02 0.01 76 1005.3
20260509144714 62 282 1.7 6.1 0.00 0.02 0.01 76 1005.4
20260509143228 62 259 1.7 6.1 0.00 0.02 0.01 79 1005.3